[[{"header":{"parameterUnit":"m.s-1","parameterCategory":1,"la1":30.2991,"la2":30.254,"lo1":-89.0895,"lo2":-89.0444,"dy":0.0017,"dx":0.0017,"nx":28,"ny":28,"refTime":"2024-04-02T03:00:00:Z","depth":0,"parameterNumber":2,"parameterNumberName":"U-component_of_WINDS"},"data":[0,0,0,0,0,0,0,0,0,0,0,0,0,0,0,0,0,0,0,0,0,0,0,0,0,0,0,0,0,0,0,0,0,0,0,0,0,0,0,0,0,0,0,0,0,0,0,0,0,0,0,0,0,0,0,0,0,0,2.1789,2.1789,0,2.1741,2.174,2.174,2.1665,2.1664,2.1662,2.1661,2.1612,2.1612,2.1612,0,0,0,0,0,0,0,0,0,0,0,0,0,2.1817,2.1817,2.1789,2.1789,2.1788,2.1741,2.174,2.174,2.1665,2.1663,2.1662,2.166,2.1612,2.1612,2.1612,0,0,0,0,0,0,0,0,0,0,0,0,0,2.179,2.1817,2.1789,2.1745,2.1741,2.1741,2.174,2.174,2.1665,2.1663,2.1661,2.166,2.1612,2.1612,2.1612,2.1652,0,0,2.1612,2.1612,0,0,0,0,0,0,0,0,2.1792,2.1789,2.1752,2.1748,2.1743,2.1707,2.1732,2.171,2.1666,2.1694,2.1661,2.1659,2.1645,2.1642,2.1638,2.165,2.1648,2.1612,2.1612,2.1612,2.1612,0,0,0,0,0,0,0,2.1794,2.1791,2.177,2.1752,2.1746,2.1728,2.1722,2.1728,2.1682,2.1691,2.1686,2.1681,2.1642,2.1638,2.1636,2.1647,2.1612,2.1612,2.1612,2.1612,2.1688,2.169,0,0,0,0,0,0,2.1802,2.1793,2.1772,2.1769,2.1763,2.1729,2.1722,2.1721,2.1681,2.1673,2.1683,2.1678,2.1639,2.1636,2.1634,2.1678,2.1612,2.1612,2.1612,2.1686,2.1689,2.1691,0,0,0,0,0,0,2.1803,2.1801,2.1774,2.1779,2.1774,2.1731,2.1729,2.1721,2.1716,2.1675,2.1666,2.1687,2.1637,2.1634,2.1648,2.1675,2.1612,2.1612,2.1684,2.1687,2.169,2.1766,0,0,0,0,0,0,2.1804,2.1802,2.1817,2.178,2.1774,2.1789,2.1731,2.1721,2.1716,2.1709,2.1676,2.1669,2.1636,2.1648,2.1648,2.1674,2.1611,2.1681,2.1685,2.1689,2.1761,2.1771,2.178,0,0,0,0,0,2.1805,2.184,2.1818,2.1816,2.1792,2.179,2.1787,2.1748,2.1719,2.1733,2.1706,2.167,2.1672,2.165,2.1649,2.1676,2.1679,2.1684,2.1689,2.1757,2.1769,2.178,0,0,0,0,0,0,2.1881,2.1835,2.1809,2.1833,2.1816,2.1778,2.1795,2.1762,2.1753,2.1747,2.1699,2.1692,2.1712,2.1695,2.1672,2.1712,2.167,2.1675,2.1722,2.1734,2.1744,2.1747,2.1611,0,0,0,0,0,2.1901,2.1903,2.1862,2.1887,2.188,2.1839,2.1837,2.1808,2.1788,2.1781,2.1755,2.1738,2.1734,2.1733,2.1728,2.1758,2.175,2.1776,2.1785,2.1794,2.1798,2.1812,2.1823,2.1706,2.1706,2.1706,0,0,2.1941,2.1916,2.192,2.1902,2.1885,2.1889,2.1833,2.184,2.1842,2.1782,2.1793,2.1774,2.1751,2.1773,2.1782,2.176,2.1828,2.18,2.1806,2.1806,2.1818,2.1829,2.1839,2.171,2.1709,2.1709,0,0,2.2016,2.1997,2.2016,2.2,2.1976,2.1948,2.1953,2.1919,2.1904,2.1914,2.1869,2.1871,2.1866,2.1852,2.1844,2.1913,2.1879,2.1913,2.1964,2.1978,2.1987,2.1995,2.2019,2.2029,2.1917,2.1918,2.1918,0,2.2069,2.2072,2.2029,2.2038,2.2031,2.1977,2.1996,2.1983,2.1958,2.1954,2.193,2.1923,2.1904,2.1921,2.1938,2.1934,2.1937,2.1916,2.1989,2.1997,2.2003,2.2026,2.2035,2.1922,2.1921,2.1921,2.1921,0,2.2139,2.2142,2.216,2.2137,2.2132,2.2146,2.2105,2.2105,2.2077,2.2052,2.2063,2.2038,2.2027,2.2029,2.2001,2.2042,2.2029,2.1998,2.1955,2.2019,2.204,2.2048,2.1928,2.1926,2.1925,2.1924,0,0,2.226,2.2213,2.222,2.2209,2.2178,2.2179,2.2191,2.2179,2.218,2.2165,2.2173,2.217,2.214,2.2131,2.2102,2.2114,2.217,2.2081,2.208,2.2098,2.2213,2.2237,2.2248,2.2147,2.2149,2.215,2.2215,0,2.2328,2.2344,2.2306,2.2332,2.2334,2.2282,2.2292,2.2274,2.2251,2.2249,2.2224,2.2222,2.2184,2.2178,2.2188,2.2161,2.2193,2.2156,2.2154,2.2154,2.2161,2.2258,2.2284,2.2346,2.2223,2.2224,2.2225,0,2.241,2.2399,2.2425,2.2392,2.2391,2.24,2.2387,2.2386,2.2364,2.2346,2.2337,2.2302,2.231,2.2269,2.2279,2.2256,2.2252,2.2239,2.224,2.2239,2.2194,2.2259,2.2365,2.2375,2.2237,2.2236,2.2236,0,2.2495,2.2487,2.2501,2.2493,2.2455,2.2463,2.2447,2.2424,2.2419,2.2407,2.2403,2.2393,2.2387,2.2379,2.2342,2.2316,2.2357,2.2313,2.2342,2.2343,2.2353,2.2353,2.246,2.2352,2.2352,2.2351,2.2351,0,2.2575,2.2593,2.2538,2.2547,2.2565,2.2521,2.2541,2.252,2.25,2.2503,2.2458,2.2463,2.2414,2.2413,2.2384,2.2396,2.2394,2.238,2.2372,2.2384,2.2386,2.2381,2.2375,2.2354,2.2353,2.2353,2.2352,0,2.2673,2.2638,2.265,2.2613,2.2604,2.2619,2.2587,2.2594,2.2568,2.2573,2.2572,2.2531,2.2527,2.249,2.2478,2.2458,2.2482,2.2466,2.249,2.2484,2.2515,2.2513,2.2623,2.2635,2.252,2.2521,2.2522,0,2.2727,2.2739,2.2704,2.2703,2.2689,2.2689,2.2684,2.2641,2.2638,2.2614,2.2623,2.2616,2.2608,2.2604,2.2573,2.2564,2.2547,2.2586,2.2545,2.2557,2.2547,2.2547,2.2547,2.2595,2.2596,2.2598,2.2599,0,2.2825,2.2806,2.2801,2.279,2.2785,2.2774,2.276,2.2762,2.2714,2.2713,2.2709,2.2702,2.269,2.2683,2.2668,2.2652,2.2618,2.2612,2.2618,2.263,2.2643,2.2636,2.2513,2.2609,2.2608,2.2608,2.2607,2.2606,2.2902,2.291,2.2886,2.2882,2.2867,2.2855,2.2859,2.2833,2.2829,2.2816,2.2791,2.279,2.2768,2.2744,2.2731,2.2729,2.2709,2.2718,2.272,2.2723,2.2729,2.2643,2.2727,2.2726,2.2726,2.2726,2.2725,0,2.2997,2.2979,2.2975,2.2957,2.2954,2.2922,2.2904,2.2903,2.2904,2.2886,2.2879,2.2873,2.2867,2.2835,2.2825,2.283,2.2814,2.2828,2.2827,2.2824,2.2748,2.2744,2.2842,2.2842,2.2842,2.2841,2.2841,2.2841,2.3046,2.3058,2.3037,2.3042,2.3024,2.3023,2.3016,2.3004,2.299,2.2986,2.298,2.296,2.2937,2.2924,2.2916,2.2907,2.2905,2.2925,2.2911,2.2841,2.2829,2.2819,2.2814,2.2925,2.2925,2.2986,2.2987,2.2987]},{"header":{"parameterUnit":"m.s-1","parameterCategory":1,"la1":30.2991,"la2":30.254,"lo1":-89.0895,"lo2":-89.0444,"dy":0.0017,"dx":0.0017,"nx":28,"ny":28,"refTime":"2024-04-02T03:00:00:Z","depth":0,"parameterNumber":3,"parameterNumberName":"V-component_of_WINDS"},"data":[0,0,0,0,0,0,0,0,0,0,0,0,0,0,0,0,0,0,0,0,0,0,0,0,0,0,0,0,0,0,0,0,0,0,0,0,0,0,0,0,0,0,0,0,0,0,0,0,0,0,0,0,0,0,0,0,0,0,5.9148,5.9152,0,5.9485,5.9489,5.9493,5.9567,5.9565,5.9563,5.956,5.9903,5.9914,5.9926,0,0,0,0,0,0,0,0,0,0,0,0,0,5.8566,5.8576,5.9148,5.9152,5.9157,5.9485,5.9489,5.9494,5.9568,5.9565,5.9562,5.9559,5.99,5.9913,5.9927,0,0,0,0,0,0,0,0,0,0,0,0,0,5.8852,5.858,5.9147,5.9233,5.9244,5.9484,5.9489,5.9495,5.9569,5.9565,5.9561,5.9558,5.9895,5.9912,5.9929,6.0106,0,0,5.9981,5.9988,0,0,0,0,0,0,0,0,5.8836,5.8874,5.9216,5.9228,5.924,5.9481,5.941,5.97,5.9569,5.9445,5.956,5.9556,5.9765,5.9793,5.9864,6.0122,6.0137,5.9982,5.9992,6.0,6.0005,0,0,0,0,0,0,0,5.8816,5.886,5.9281,5.9221,5.9236,5.9254,5.9291,5.9465,5.9621,5.9456,5.9462,5.9501,5.9771,5.9847,5.9873,6.0142,5.9982,5.9997,6.0007,6.0014,6.0563,6.0567,0,0,0,0,0,0,5.8782,5.8843,5.9271,5.9292,5.9025,5.9267,5.9308,5.9407,5.962,5.9649,5.9504,5.9503,5.982,5.9853,5.9885,6.0108,6.0,6.0016,6.0025,6.0558,6.0563,6.0568,0,0,0,0,0,0,5.8769,5.8819,5.9257,5.9069,5.9126,5.9281,5.9392,5.9416,5.9492,5.9656,5.9684,5.9553,5.9818,5.9861,6.0051,6.0121,6.0023,6.0039,6.0553,6.056,6.0566,6.0553,0,0,0,0,0,0,5.8752,5.8814,5.8884,5.907,5.9136,5.9418,5.9396,5.9425,5.9521,5.9524,5.971,5.9737,5.9819,6.0025,6.0068,6.0142,6.0052,6.0548,6.0556,6.0564,6.0548,6.0559,6.0568,0,0,0,0,0,5.8731,5.8866,5.8887,5.8938,5.9227,5.9422,5.946,5.9552,5.9527,5.9598,5.9703,5.9731,6.0105,6.0044,6.0093,6.0173,6.0544,6.0554,6.0563,6.0544,6.0557,6.0567,0,0,0,0,0,0,5.8684,5.8892,5.8918,5.9118,5.9252,5.9434,5.9527,5.9562,5.9706,5.9702,5.9809,5.9851,6.0034,6.0122,6.005,6.0356,6.0323,6.0343,6.0292,6.0306,6.0315,6.0291,6.0066,0,0,0,0,0,5.8697,5.8839,5.9013,5.9173,5.9239,5.9371,5.9459,5.9519,5.9662,5.9719,5.9838,5.9975,6.0123,6.0219,6.0365,6.0561,6.0602,6.064,6.065,6.0657,6.0673,6.0784,6.0803,6.06,6.06,6.06,0,0,5.8725,5.8856,5.894,5.9167,5.9277,5.9422,5.9418,5.9571,5.9679,5.9742,5.9929,6.0021,6.018,6.0374,6.0465,6.0453,6.0738,6.0669,6.0674,6.0687,6.0796,6.0815,6.0832,6.0607,6.0606,6.0605,0,0,5.8851,5.8964,5.911,5.9221,5.9389,5.9476,5.951,5.9688,5.9752,5.9942,5.9992,6.0121,6.0374,6.0487,6.0576,6.0743,6.0774,6.0787,6.0838,6.0945,6.0961,6.0975,6.1036,6.1056,6.0803,6.0803,6.0803,0,5.8864,5.9085,5.918,5.9331,5.943,5.9493,5.9641,5.9744,5.995,6.0017,6.0,6.032,6.0432,6.0653,6.0693,6.0764,6.0807,6.0768,6.0951,6.0967,6.0982,6.104,6.1063,6.0803,6.0803,6.0803,6.0803,0,5.9094,5.9245,5.9343,5.9542,5.9651,5.9799,5.9917,6.0015,6.0064,6.0153,6.0344,6.0481,6.0655,6.0712,6.0761,6.094,6.0927,6.0929,6.0899,6.1,6.1057,6.108,6.0804,6.0804,6.0804,6.0804,0,0,5.9201,5.945,5.9484,5.9576,5.9765,5.9884,6.0035,6.0206,6.0289,6.0428,6.0558,6.077,6.0774,6.0876,6.0938,6.1031,6.1155,6.1022,6.1028,6.1043,6.1361,6.136,6.1384,6.1176,6.1181,6.1185,6.1348,0,5.935,5.9624,5.9714,5.9941,6.0082,6.0144,6.0275,6.0405,6.0491,6.0623,6.0717,6.0867,6.0859,6.0921,6.1016,6.112,6.1221,6.1109,6.1298,6.1303,6.1258,6.1414,6.1414,6.1562,6.1371,6.1375,6.1378,0,5.9562,5.9706,5.9947,6.0119,6.0182,6.0299,6.0463,6.0588,6.0736,6.0792,6.0906,6.0961,6.112,6.1078,6.1299,6.1221,6.1303,6.1366,6.1374,6.1397,6.1348,6.1442,6.1611,6.1634,6.1414,6.1411,6.1408,0,5.9618,5.9871,6.0049,6.0125,6.0329,6.041,6.0498,6.0643,6.074,6.0883,6.0948,6.1106,6.1194,6.1315,6.1411,6.1372,6.1624,6.159,6.1675,6.1673,6.1727,6.1722,6.1912,6.1776,6.1776,6.1776,6.1775,0,5.9776,5.9922,6.0077,6.0186,6.035,6.0451,6.0611,6.0703,6.0831,6.0958,6.102,6.1138,6.1257,6.1391,6.1466,6.1638,6.1677,6.1726,6.1745,6.1722,6.1716,6.1779,6.1772,6.1782,6.178,6.1779,6.1778,0,5.9867,5.9976,6.0174,6.0351,6.0399,6.0513,6.0664,6.0772,6.086,6.102,6.1064,6.1202,6.1362,6.1469,6.1674,6.1725,6.1912,6.1928,6.1863,6.1872,6.1951,6.1943,6.219,6.2228,6.2064,6.2065,6.2067,0,5.9962,6.0076,6.0265,6.0355,6.0445,6.0589,6.0689,6.0792,6.0893,6.107,6.1156,6.1321,6.1459,6.1712,6.183,6.1986,6.2007,6.2083,6.2031,6.2005,6.201,6.2003,6.2015,6.2091,6.2093,6.2094,6.2095,0,6.0119,6.0168,6.031,6.0471,6.0589,6.072,6.0852,6.0922,6.1047,6.1158,6.1323,6.1429,6.1639,6.1802,6.1969,6.206,6.2099,6.211,6.2138,6.2117,6.2075,6.21,6.1887,6.2104,6.2103,6.2102,6.2102,6.2102,6.0217,6.032,6.047,6.0626,6.0736,6.0858,6.0968,6.107,6.121,6.1389,6.1441,6.1613,6.1757,6.1987,6.208,6.2215,6.2208,6.2248,6.2259,6.2268,6.2269,6.2051,6.2246,6.2246,6.2246,6.2246,6.2246,0,6.0378,6.0478,6.062,6.0803,6.0925,6.0951,6.1098,6.1199,6.135,6.1482,6.1616,6.1805,6.1963,6.2093,6.2256,6.2339,6.2361,6.2379,6.2374,6.2395,6.2266,6.2226,6.2358,6.2358,6.2358,6.2358,6.2358,6.2358,6.0477,6.0655,6.0721,6.0953,6.1051,6.1221,6.1303,6.1415,6.1521,6.173,6.1862,6.1946,6.2077,6.225,6.2396,6.243,6.2487,6.2501,6.2539,6.2416,6.2404,6.2392,6.2355,6.2512,6.2513,6.2657,6.2659,6.266]}]]